Regional Weather Roundup
Issued by NWS

Home | Current Version | Previous Version | Graphics & Text | Print | Product List | Glossary On
Versions: 1 2 3 4 5 6 7 8 9 10 11 12 13 14 15 16 17 18 19 20 21 22 23 24 25 26 27 28 29 30 31 32 33 34 35 36 37 38 39 40 41 42 43 44 45 46 47 48 49 50
000
ASUS43 KOAX 030110
RWRNE

WEATHER ROUNDUP FOR NEBRASKA
NATIONAL WEATHER SERVICE OMAHA NE
700 PM CST FRI DEC 02 2016

NOTES: SATELLITE DATA IS BEING USED TO AUGMENT CLOUD COVER ABOVE
       12000 FEET.
       "FAIR" INDICATES FEW OR NO CLOUDS BELOW 12,000 FEET WITH NO
       SIGNIFICANT WEATHER AND/OR OBSTRUCTIONS TO VISIBILITY.

  * THESE STATIONS DO NOT REPORT WEATHER SUCH AS RAIN...SNOW OR FOG.

NEZ001>004-019>022-054>056-030200-
NEBRASKA PANHANDLE

CITY           SKY/WX    TMP DP  RH WIND       PRES   REMARKS
SCOTTSBLUFF    PTCLDY    31  19  61 S3        30.19F
ALLIANCE       CLOUDY    29  19  66 SW9       30.19S WCI  20
CHADRON        PTCLDY    25  16  68 CALM      30.20R
KIMBALL        CLOUDY    30  25  79 CALM      30.18F
SIDNEY         CLOUDY    24  18  77 SW7       30.20S WCI  16
$$

NEZ057>060-069>072-079>082-030200-
SOUTHWEST NEBRASKA

CITY           SKY/WX    TMP DP  RH WIND       PRES   REMARKS
NORTH PLATTE   CLEAR     25  18  74 E3        30.24S
IMPERIAL       PTCLDY    31  22  69 CALM      30.23R
LEXINGTON      CLEAR     26  22  85 CALM      30.25F
MCCOOK         CLEAR     31  20  63 E3        30.25R
OGALLALA       CLEAR     25  19  80 CALM      30.22S
$$

NEZ005>010-023>029-035>040-094-030200-
NORTH CENTRAL NEBRASKA

CITY           SKY/WX    TMP DP  RH WIND       PRES   REMARKS
VALENTINE      CLEAR     26  21  81 SW5       30.24S WCI  20
AINSWORTH      CLEAR     28  23  82 CALM      30.25R
BROKEN BOW     CLEAR     25  21  85 CALM      30.24S
O`NEILL        PTCLDY    29  26  86 SE3       30.28S
ORD            CLEAR     25  18  74 CALM      30.26S
THEDFORD       CLEAR     30  20  66 CALM      30.23F
$$

NEZ041-046>049-061>064-073>077-083>087-030200-
SOUTH CENTRAL NEBRASKA

CITY           SKY/WX    TMP DP  RH WIND       PRES   REMARKS
GRAND ISLAND   CLOUDY    30  24  78 CALM      30.29S
AURORA         CLOUDY    32  24  73 CALM      30.29S
HASTINGS       CLEAR     30  23  75 CALM      30.29S
HEBRON         CLEAR     31  24  74 CALM      30.31R
HOLDREGE       CLOUDY    28  21  76 E3        30.27R
KEARNEY *      CLEAR     28  18  64 CALM      30.27S
YORK           CLOUDY    34  25  69 CALM      30.31R
$$

NEZ011>018-030>034-042>045-030200-
NORTHEAST NEBRASKA

CITY           SKY/WX    TMP DP  RH WIND       PRES   REMARKS
NORFOLK        CLEAR     30  24  78 CALM      30.30S
ALBION         CLEAR     28  24  84 SE3       30.30S
BLAIR          MOCLDY    34  28  79 NW3       30.32S
FREMONT        PTCLDY    30  26  86 CALM      30.33S
TEKAMAH        CLOUDY    36  29  75 NW7       30.34R WCI  30
WAYNE          CLOUDY    33  29  85 CALM      30.31S
$$

NEZ050>053-065>068-078-088>093-030200-
SOUTHEAST NEBRASKA

CITY           SKY/WX    TMP DP  RH WIND       PRES   REMARKS
LINCOLN        CLEAR     30  25  81 N6        30.33S WCI  24
OMAHA EPPLEY   CLOUDY    36  28  73 CALM      30.34R
BEATRICE       CLEAR     32  26  77 NE5       30.32R WCI  27
FALLS CITY       N/A    N/A N/A N/A MISG      30.32R
NEBRASKA CITY  CLOUDY    35  25  68 CALM      30.32R
PLATTSMOUTH    PTCLDY    34  26  74 NE5       30.32S WCI  30
$$

NEZ044-045-051>053-067-030200-
OMAHA AREA

CITY           SKY/WX    TMP DP  RH WIND       PRES   REMARKS
OMAHA EPPLEY   CLOUDY    36  28  73 CALM      30.34R
BLAIR          MOCLDY    34  28  79 NW3       30.32S
FREMONT        PTCLDY    30  26  86 CALM      30.33S
MILLARD        CLEAR     33  28  82 CALM      30.34R
OFFUTT AFB     CLEAR     26  26  99 N2        30.33R
PLATTSMOUTH    PTCLDY    34  26  74 NE5       30.32S WCI  30
WAHOO          FAIR      28  24  87 N6        30.33S WCI  21
$$




USA.gov is the U.S. government's official web portal to all federal, state and local government web resources and services.